Year,Month,Day,Hour,Minute,Value (Times are PST for windspeed in km/hr)
2019,11,17,00,00,12.60
2019,11,17,00,01,10.00
2019,11,17,00,02,4.20
2019,11,17,00,03,16.40
2019,11,17,00,04,14.80
2019,11,17,00,05,4.90
2019,11,17,00,06,7.20
2019,11,17,00,07,1.40
2019,11,17,00,08,10.90
2019,11,17,00,09,4.90
2019,11,17,00,10,16.90
2019,11,17,00,11,16.30
2019,11,17,00,12,22.40
2019,11,17,00,13,27.40
2019,11,17,00,14,26.90
2019,11,17,00,15,17.50
2019,11,17,00,16,5.20
2019,11,17,00,17,18.30
2019,11,17,00,18,14.10
2019,11,17,00,19,5.60
2019,11,17,00,20,14.70
2019,11,17,00,21,10.10
2019,11,17,00,22,9.00
2019,11,17,00,23,16.60
2019,11,17,00,24,13.50
2019,11,17,00,25,15.20
2019,11,17,00,26,10.60
2019,11,17,00,27,15.70
2019,11,17,00,28,12.60
2019,11,17,00,29,10.80
2019,11,17,00,30,9.20
2019,11,17,00,31,0.30
2019,11,17,00,32,0.10
2019,11,17,00,33,10.80
2019,11,17,00,34,11.90
2019,11,17,00,35,16.60
2019,11,17,00,36,33.40
2019,11,17,00,37,23.00
2019,11,17,00,38,20.50
2019,11,17,00,39,16.20
2019,11,17,00,40,9.10
2019,11,17,00,41,5.40
2019,11,17,00,42,18.80
2019,11,17,00,43,2.10
2019,11,17,00,44,10.40
2019,11,17,00,45,14.30
2019,11,17,00,46,21.20
2019,11,17,00,47,17.80
2019,11,17,00,48,10.20
2019,11,17,00,49,22.00
2019,11,17,00,50,27.50
2019,11,17,00,51,24.70
2019,11,17,00,52,18.40
2019,11,17,00,53,16.20
2019,11,17,00,54,6.50
2019,11,17,00,55,19.10
2019,11,17,00,56,31.40
2019,11,17,00,57,21.30
2019,11,17,00,58,23.20
2019,11,17,00,59,21.40
2019,11,17,01,00,10.50
2019,11,17,01,01,12.00
2019,11,17,01,02,14.00
2019,11,17,01,03,14.80
2019,11,17,01,04,27.70
2019,11,17,01,05,10.90
2019,11,17,01,06,10.90
2019,11,17,01,07,19.20
2019,11,17,01,08,20.90
2019,11,17,01,09,21.40
2019,11,17,01,10,26.30
2019,11,17,01,11,18.80
2019,11,17,01,12,11.90
2019,11,17,01,13,17.60
2019,11,17,01,14,13.60
2019,11,17,01,15,17.60
2019,11,17,01,16,24.50
2019,11,17,01,17,13.90
2019,11,17,01,18,17.30
2019,11,17,01,19,12.60
2019,11,17,01,20,22.40
2019,11,17,01,21,14.00
2019,11,17,01,22,31.60
2019,11,17,01,23,17.50
2019,11,17,01,24,9.50
2019,11,17,01,25,19.30
2019,11,17,01,26,11.80
2019,11,17,01,27,10.60
2019,11,17,01,28,5.50
2019,11,17,01,29,8.40
2019,11,17,01,30,18.70
2019,11,17,01,31,13.80
2019,11,17,01,32,15.90
2019,11,17,01,33,24.10
2019,11,17,01,34,17.70
2019,11,17,01,35,11.00
2019,11,17,01,36,10.90
2019,11,17,01,37,7.80
2019,11,17,01,38,3.30
2019,11,17,01,39,9.60
2019,11,17,01,40,6.90
2019,11,17,01,41,6.40
2019,11,17,01,42,9.40
2019,11,17,01,43,1.20
2019,11,17,01,44,14.80
2019,11,17,01,45,36.70
2019,11,17,01,46,23.40
2019,11,17,01,47,12.30
2019,11,17,01,48,15.20
2019,11,17,01,49,17.40
2019,11,17,01,50,2.30
2019,11,17,01,51,7.00
2019,11,17,01,52,8.90
2019,11,17,01,53,1.40
2019,11,17,01,54,0.00
2019,11,17,01,55,0.10
2019,11,17,01,56,0.00
2019,11,17,01,57,0.00
2019,11,17,01,58,7.80
2019,11,17,01,59,5.30
2019,11,17,02,00,1.20
2019,11,17,02,01,0.40
2019,11,17,02,02,0.00
2019,11,17,02,03,0.00
2019,11,17,02,04,9.70
2019,11,17,02,05,4.00
2019,11,17,02,06,4.60
2019,11,17,02,07,10.10
2019,11,17,02,08,14.10
2019,11,17,02,09,16.20
2019,11,17,02,10,20.40
2019,11,17,02,11,12.90
2019,11,17,02,12,17.00
2019,11,17,02,13,13.20
2019,11,17,02,14,17.60
2019,11,17,02,15,21.90
2019,11,17,02,16,12.50
2019,11,17,02,17,13.00
2019,11,17,02,18,12.70
2019,11,17,02,19,8.70
2019,11,17,02,20,4.40
2019,11,17,02,21,27.90
2019,11,17,02,22,14.20
2019,11,17,02,23,22.30
2019,11,17,02,24,16.60
2019,11,17,02,25,14.70
2019,11,17,02,26,14.70
2019,11,17,02,27,17.80
2019,11,17,02,28,7.30
2019,11,17,02,29,12.80
2019,11,17,02,30,7.80
2019,11,17,02,31,1.70
2019,11,17,02,32,7.00
2019,11,17,02,33,21.40
2019,11,17,02,34,16.50
2019,11,17,02,35,18.90
2019,11,17,02,36,11.20
2019,11,17,02,37,12.10
2019,11,17,02,38,10.50
2019,11,17,02,39,4.50
2019,11,17,02,40,1.80
2019,11,17,02,41,8.60
2019,11,17,02,42,2.70
2019,11,17,02,43,2.40
2019,11,17,02,44,2.70
2019,11,17,02,45,0.90
2019,11,17,02,46,0.00
2019,11,17,02,47,0.00
2019,11,17,02,48,0.00
2019,11,17,02,49,0.00
2019,11,17,02,50,0.00
2019,11,17,02,51,0.00
2019,11,17,02,52,0.00
2019,11,17,02,53,0.90
2019,11,17,02,54,0.10
2019,11,17,02,55,0.00
2019,11,17,02,56,0.00
2019,11,17,02,57,0.00
2019,11,17,02,58,0.00
2019,11,17,02,59,0.00
2019,11,17,03,00,0.00
2019,11,17,03,01,3.20
2019,11,17,03,02,0.20
2019,11,17,03,03,2.80
2019,11,17,03,04,0.00
2019,11,17,03,05,0.00
2019,11,17,03,06,2.70
2019,11,17,03,07,0.00
2019,11,17,03,08,0.20
2019,11,17,03,09,3.70
2019,11,17,03,10,0.10
2019,11,17,03,11,0.00
2019,11,17,03,12,0.10
2019,11,17,03,13,7.80
2019,11,17,03,14,7.30
2019,11,17,03,15,5.00
2019,11,17,03,16,0.10
2019,11,17,03,17,4.40
2019,11,17,03,18,14.00
2019,11,17,03,19,16.40
2019,11,17,03,20,3.10
2019,11,17,03,21,10.00
2019,11,17,03,22,12.20
2019,11,17,03,23,15.20
2019,11,17,03,24,11.60
2019,11,17,03,25,11.60
2019,11,17,03,26,19.10
2019,11,17,03,27,2.70
2019,11,17,03,28,14.90
2019,11,17,03,29,4.80
2019,11,17,03,30,15.00
2019,11,17,03,31,15.60
2019,11,17,03,32,10.40
2019,11,17,03,33,4.60
2019,11,17,03,34,8.10
2019,11,17,03,35,10.00
2019,11,17,03,36,0.00
2019,11,17,03,37,0.00
2019,11,17,03,38,0.00
2019,11,17,03,39,0.00
2019,11,17,03,40,3.00
2019,11,17,03,41,3.40
2019,11,17,03,42,0.10
2019,11,17,03,43,0.00
2019,11,17,03,44,0.00
2019,11,17,03,45,0.00
2019,11,17,03,46,0.00
2019,11,17,03,47,0.00
2019,11,17,03,48,0.00
2019,11,17,03,49,1.10
2019,11,17,03,50,0.20
2019,11,17,03,51,0.00
2019,11,17,03,52,0.00
2019,11,17,03,53,0.00
2019,11,17,03,54,0.00
2019,11,17,03,55,0.00
2019,11,17,03,56,0.00
2019,11,17,03,57,0.00
2019,11,17,03,58,0.00
2019,11,17,03,59,0.00
2019,11,17,04,00,0.60
2019,11,17,04,01,0.30
2019,11,17,04,02,0.00
2019,11,17,04,03,0.00
2019,11,17,04,04,0.00
2019,11,17,04,05,0.00
2019,11,17,04,06,0.00
2019,11,17,04,07,0.00
2019,11,17,04,08,0.00
2019,11,17,04,09,0.00
2019,11,17,04,10,0.00
2019,11,17,04,11,0.00
2019,11,17,04,12,0.00
2019,11,17,04,13,0.00
2019,11,17,04,14,0.00
2019,11,17,04,15,0.00
2019,11,17,04,16,0.00
2019,11,17,04,17,0.00
2019,11,17,04,18,0.00
2019,11,17,04,19,0.00
2019,11,17,04,20,0.00
2019,11,17,04,21,0.00
2019,11,17,04,22,0.00
2019,11,17,04,23,2.70
2019,11,17,04,24,0.00
2019,11,17,04,25,0.00
2019,11,17,04,26,0.00
2019,11,17,04,27,0.00
2019,11,17,04,28,0.00
2019,11,17,04,29,4.70
2019,11,17,04,30,0.00
2019,11,17,04,31,0.00
2019,11,17,04,32,5.30
2019,11,17,04,33,17.10
2019,11,17,04,34,10.20
2019,11,17,04,35,3.70
2019,11,17,04,36,0.00
2019,11,17,04,37,9.60
2019,11,17,04,38,12.30
2019,11,17,04,39,0.60
2019,11,17,04,40,0.00
2019,11,17,04,41,2.20
2019,11,17,04,42,5.00
2019,11,17,04,43,6.10
2019,11,17,04,44,1.90
2019,11,17,04,45,0.20
2019,11,17,04,46,0.80
2019,11,17,04,47,0.00
2019,11,17,04,48,0.00
2019,11,17,04,49,0.00
2019,11,17,04,50,9.40
2019,11,17,04,51,2.10
2019,11,17,04,52,0.00
2019,11,17,04,53,0.00
2019,11,17,04,54,0.00
2019,11,17,04,55,0.00
2019,11,17,04,56,0.40
2019,11,17,04,57,0.00
2019,11,17,04,58,0.00
2019,11,17,04,59,0.00
2019,11,17,05,00,0.00
2019,11,17,05,01,10.00
2019,11,17,05,02,1.90
2019,11,17,05,03,10.10
2019,11,17,05,04,7.10
2019,11,17,05,05,10.90
2019,11,17,05,06,8.70
2019,11,17,05,07,2.50
2019,11,17,05,08,0.00
2019,11,17,05,09,0.00
2019,11,17,05,10,0.00
2019,11,17,05,11,0.00
2019,11,17,05,12,3.80
2019,11,17,05,13,8.50
2019,11,17,05,14,7.30
2019,11,17,05,15,10.50
2019,11,17,05,16,9.40
2019,11,17,05,17,1.00
2019,11,17,05,18,0.00
2019,11,17,05,19,0.00
2019,11,17,05,20,0.00
2019,11,17,05,21,0.00
2019,11,17,05,22,0.00
2019,11,17,05,23,0.00
2019,11,17,05,24,0.20
2019,11,17,05,25,0.00
2019,11,17,05,26,0.00
2019,11,17,05,27,0.00
2019,11,17,05,28,0.00
2019,11,17,05,29,0.40
2019,11,17,05,30,5.50
2019,11,17,05,31,1.40
2019,11,17,05,32,0.00
2019,11,17,05,33,0.00
2019,11,17,05,34,0.00
2019,11,17,05,35,0.00
2019,11,17,05,36,0.00
2019,11,17,05,37,0.00
2019,11,17,05,38,0.00
2019,11,17,05,39,0.00
2019,11,17,05,40,0.00
2019,11,17,05,41,0.00
2019,11,17,05,42,0.00
2019,11,17,05,43,0.00
2019,11,17,05,44,0.00
2019,11,17,05,45,0.00
2019,11,17,05,46,0.00
2019,11,17,05,47,0.00
2019,11,17,05,48,0.00
2019,11,17,05,49,0.00
2019,11,17,05,50,0.00
2019,11,17,05,51,0.00
2019,11,17,05,52,0.00
2019,11,17,05,53,0.00
2019,11,17,05,54,0.00
2019,11,17,05,55,0.00
2019,11,17,05,56,0.00
2019,11,17,05,57,0.00
2019,11,17,05,58,0.00
2019,11,17,05,59,0.30
2019,11,17,06,00,0.60
2019,11,17,06,01,11.40
2019,11,17,06,02,11.40
2019,11,17,06,03,10.60
2019,11,17,06,04,12.20
2019,11,17,06,05,8.40
2019,11,17,06,06,12.30
2019,11,17,06,07,10.80
2019,11,17,06,08,10.00
2019,11,17,06,09,0.80
2019,11,17,06,10,0.00
2019,11,17,06,11,7.40
2019,11,17,06,12,3.10
2019,11,17,06,13,6.30
2019,11,17,06,14,5.20
2019,11,17,06,15,15.00
2019,11,17,06,16,20.50
2019,11,17,06,17,14.50
2019,11,17,06,18,16.70
2019,11,17,06,19,12.70
2019,11,17,06,20,15.60
2019,11,17,06,21,11.20
2019,11,17,06,22,19.40
2019,11,17,06,23,10.00
2019,11,17,06,24,12.30
2019,11,17,06,25,2.90
2019,11,17,06,26,1.30
2019,11,17,06,27,15.30
2019,11,17,06,28,22.50
2019,11,17,06,29,25.30
2019,11,17,06,30,28.10
2019,11,17,06,31,6.60
2019,11,17,06,32,9.20
2019,11,17,06,33,24.60
2019,11,17,06,34,26.70
2019,11,17,06,35,35.30
2019,11,17,06,36,25.30
2019,11,17,06,37,29.20
2019,11,17,06,38,19.70
2019,11,17,06,39,9.60
2019,11,17,06,40,18.90
2019,11,17,06,41,18.20
2019,11,17,06,42,12.40
2019,11,17,06,43,11.40
2019,11,17,06,44,0.00
2019,11,17,06,45,8.60
2019,11,17,06,46,16.90
2019,11,17,06,47,26.30
2019,11,17,06,48,12.50
2019,11,17,06,49,5.20
2019,11,17,06,50,0.00
2019,11,17,06,51,5.40
2019,11,17,06,52,2.60
2019,11,17,06,53,1.10
2019,11,17,06,54,4.20
2019,11,17,06,55,1.00
2019,11,17,06,56,0.00
2019,11,17,06,57,0.10
2019,11,17,06,58,1.40
2019,11,17,06,59,12.80
2019,11,17,07,00,14.30
2019,11,17,07,01,6.00
2019,11,17,07,02,5.20
2019,11,17,07,03,3.60
2019,11,17,07,04,0.00
2019,11,17,07,05,9.80
2019,11,17,07,06,13.40
2019,11,17,07,07,11.10
2019,11,17,07,08,17.80
2019,11,17,07,09,14.50
2019,11,17,07,10,10.00
2019,11,17,07,11,9.80
2019,11,17,07,12,1.70
2019,11,17,07,13,3.60
2019,11,17,07,14,1.00
2019,11,17,07,15,0.00
2019,11,17,07,16,0.00
2019,11,17,07,17,0.00
2019,11,17,07,18,0.00
2019,11,17,07,19,0.00
2019,11,17,07,20,0.10
2019,11,17,07,21,11.50
2019,11,17,07,22,4.20
2019,11,17,07,23,0.00
2019,11,17,07,24,0.00
2019,11,17,07,25,2.50
2019,11,17,07,26,0.00
2019,11,17,07,27,0.00
2019,11,17,07,28,0.00
2019,11,17,07,29,0.00
2019,11,17,07,30,0.20
2019,11,17,07,31,0.00
2019,11,17,07,32,0.10
2019,11,17,07,33,0.10
2019,11,17,07,34,0.00
2019,11,17,07,35,0.10
2019,11,17,07,36,0.10
2019,11,17,07,37,0.10
2019,11,17,07,38,0.00
2019,11,17,07,39,3.20
2019,11,17,07,40,6.60
2019,11,17,07,41,0.10
2019,11,17,07,42,0.10
2019,11,17,07,43,0.10
2019,11,17,07,44,2.40
2019,11,17,07,45,7.20
2019,11,17,07,46,7.10
2019,11,17,07,47,12.70
2019,11,17,07,48,5.30
2019,11,17,07,49,0.20
2019,11,17,07,50,12.10
2019,11,17,07,51,21.20
2019,11,17,07,52,13.30
2019,11,17,07,53,4.60
2019,11,17,07,54,10.90
2019,11,17,07,55,15.00
2019,11,17,07,56,17.70
2019,11,17,07,57,9.40
2019,11,17,07,58,0.10
2019,11,17,07,59,8.10
2019,11,17,08,00,0.70
2019,11,17,08,01,6.80
2019,11,17,08,02,0.40
2019,11,17,08,03,5.20
2019,11,17,08,04,12.10
2019,11,17,08,05,14.50
2019,11,17,08,06,7.30
2019,11,17,08,07,0.10
2019,11,17,08,08,0.00
2019,11,17,08,09,0.70
2019,11,17,08,10,4.50
2019,11,17,08,11,4.20
2019,11,17,08,12,3.30
2019,11,17,08,13,4.60
2019,11,17,08,14,0.50
2019,11,17,08,15,4.60
2019,11,17,08,16,6.30
2019,11,17,08,17,0.10
2019,11,17,08,18,3.80
2019,11,17,08,19,0.20
2019,11,17,08,20,0.00
2019,11,17,08,21,0.20
2019,11,17,08,22,0.60
2019,11,17,08,23,3.30
2019,11,17,08,24,0.00
2019,11,17,08,25,0.00
2019,11,17,08,26,0.00
2019,11,17,08,27,0.00
2019,11,17,08,28,0.00
2019,11,17,08,29,0.40
2019,11,17,08,30,10.20
2019,11,17,08,31,1.10
2019,11,17,08,32,6.40
2019,11,17,08,33,8.90
2019,11,17,08,34,1.40
2019,11,17,08,35,0.00
2019,11,17,08,36,2.90
2019,11,17,08,37,8.90
2019,11,17,08,38,5.80
2019,11,17,08,39,0.00
2019,11,17,08,40,0.00
2019,11,17,08,41,0.00
2019,11,17,08,42,0.00
2019,11,17,08,43,0.00
2019,11,17,08,44,0.00
2019,11,17,08,45,0.00
2019,11,17,08,46,0.00
2019,11,17,08,47,0.00
2019,11,17,08,48,0.00
2019,11,17,08,49,0.00
2019,11,17,08,50,0.00
2019,11,17,08,51,0.00
2019,11,17,08,52,0.00
2019,11,17,08,53,0.20
2019,11,17,08,54,0.00
2019,11,17,08,55,9.00
2019,11,17,08,56,15.30
2019,11,17,08,57,5.00
2019,11,17,08,58,10.80
2019,11,17,08,59,7.30
2019,11,17,09,00,0.60
2019,11,17,09,01,2.50
2019,11,17,09,02,6.30
2019,11,17,09,03,0.80
2019,11,17,09,04,0.00
2019,11,17,09,05,0.00
2019,11,17,09,06,0.10
2019,11,17,09,07,1.00
2019,11,17,09,08,0.70
2019,11,17,09,09,17.20
2019,11,17,09,10,9.10
2019,11,17,09,11,2.10
2019,11,17,09,12,12.00
2019,11,17,09,13,19.80
2019,11,17,09,14,13.00
2019,11,17,09,15,13.50
2019,11,17,09,16,5.40
2019,11,17,09,17,3.20
2019,11,17,09,18,1.30
2019,11,17,09,19,4.80
2019,11,17,09,20,6.40
2019,11,17,09,21,8.30
2019,11,17,09,22,10.90
2019,11,17,09,23,1.20
2019,11,17,09,24,3.00
2019,11,17,09,25,11.80
2019,11,17,09,26,14.60
2019,11,17,09,27,15.00
2019,11,17,09,28,8.20
2019,11,17,09,29,7.40
2019,11,17,09,30,8.10
2019,11,17,09,31,8.70
2019,11,17,09,32,15.00
2019,11,17,09,33,14.80
2019,11,17,09,34,0.10
2019,11,17,09,35,2.20
2019,11,17,09,36,14.20
2019,11,17,09,37,6.40
2019,11,17,09,38,0.50
2019,11,17,09,39,4.80
2019,11,17,09,40,2.80
2019,11,17,09,41,1.50
2019,11,17,09,42,3.80
2019,11,17,09,43,8.30
2019,11,17,09,44,2.50
2019,11,17,09,45,0.00
2019,11,17,09,46,0.00
2019,11,17,09,47,1.10
2019,11,17,09,48,3.40
2019,11,17,09,49,20.20
2019,11,17,09,50,20.80
2019,11,17,09,51,10.50
2019,11,17,09,52,10.90
2019,11,17,09,53,6.20
2019,11,17,09,54,1.10
2019,11,17,09,55,2.20
2019,11,17,09,56,3.10
2019,11,17,09,57,0.00
2019,11,17,09,58,1.20
2019,11,17,09,59,5.00
2019,11,17,10,00,19.80
2019,11,17,10,01,20.60
2019,11,17,10,02,21.70
2019,11,17,10,03,25.50
2019,11,17,10,04,22.20
2019,11,17,10,05,18.40
2019,11,17,10,06,21.50
2019,11,17,10,07,17.00
2019,11,17,10,08,14.00
2019,11,17,10,09,15.70
2019,11,17,10,10,10.80
2019,11,17,10,11,13.50
2019,11,17,10,12,5.10
2019,11,17,10,13,2.20
2019,11,17,10,14,5.90
2019,11,17,10,15,4.00
2019,11,17,10,16,9.70
2019,11,17,10,17,0.20
2019,11,17,10,18,15.00
2019,11,17,10,19,2.20
2019,11,17,10,20,0.10
2019,11,17,10,21,5.40
2019,11,17,10,22,15.80
2019,11,17,10,23,1.10
2019,11,17,10,24,9.00
2019,11,17,10,25,10.60
2019,11,17,10,26,17.00
2019,11,17,10,27,10.60
2019,11,17,10,28,14.10
2019,11,17,10,29,9.00
2019,11,17,10,30,5.30
2019,11,17,10,31,0.00
2019,11,17,10,32,0.00
2019,11,17,10,33,0.70
2019,11,17,10,34,3.40
2019,11,17,10,35,11.10
2019,11,17,10,36,13.10
2019,11,17,10,37,7.40
2019,11,17,10,38,10.10
2019,11,17,10,39,14.60
2019,11,17,10,40,5.20
2019,11,17,10,41,12.70
2019,11,17,10,42,8.40
2019,11,17,10,43,7.50
2019,11,17,10,44,3.50
2019,11,17,10,45,4.30
2019,11,17,10,46,2.60
2019,11,17,10,47,2.50
2019,11,17,10,48,2.30
2019,11,17,10,49,13.00
2019,11,17,10,50,14.40
2019,11,17,10,51,2.10
2019,11,17,10,52,2.30
2019,11,17,10,53,12.40
2019,11,17,10,54,20.30
2019,11,17,10,55,18.10
2019,11,17,10,56,14.30
2019,11,17,10,57,8.00
2019,11,17,10,58,0.00
2019,11,17,10,59,10.90
2019,11,17,11,00,10.50
2019,11,17,11,01,0.50
2019,11,17,11,02,2.30
2019,11,17,11,03,10.40
2019,11,17,11,04,19.00
2019,11,17,11,05,4.10
2019,11,17,11,06,13.90
2019,11,17,11,07,4.50
2019,11,17,11,08,4.90
2019,11,17,11,09,3.30
2019,11,17,11,10,4.80
2019,11,17,11,11,4.40
2019,11,17,11,12,10.10
2019,11,17,11,13,1.20
2019,11,17,11,14,6.80
2019,11,17,11,15,8.80
2019,11,17,11,16,1.30
2019,11,17,11,17,1.80
2019,11,17,11,18,8.20
2019,11,17,11,19,5.80
2019,11,17,11,20,6.20
2019,11,17,11,21,16.50
2019,11,17,11,22,8.30
2019,11,17,11,23,11.70
2019,11,17,11,24,4.90
2019,11,17,11,25,10.40
2019,11,17,11,26,22.70
2019,11,17,11,27,26.70
2019,11,17,11,28,13.60
2019,11,17,11,29,6.30
2019,11,17,11,30,4.00
2019,11,17,11,31,5.30
2019,11,17,11,32,12.10
2019,11,17,11,33,19.40
2019,11,17,11,34,1.10
2019,11,17,11,35,11.00
2019,11,17,11,36,5.10
2019,11,17,11,37,2.90
2019,11,17,11,38,7.60
2019,11,17,11,39,2.10
2019,11,17,11,40,4.10
2019,11,17,11,41,5.20
2019,11,17,11,42,12.80
2019,11,17,11,43,9.30
2019,11,17,11,44,14.20
2019,11,17,11,45,11.30
2019,11,17,11,46,17.90
2019,11,17,11,47,16.70
2019,11,17,11,48,15.40
2019,11,17,11,49,12.70
2019,11,17,11,50,16.80
2019,11,17,11,51,17.60
2019,11,17,11,52,17.20
2019,11,17,11,53,11.80
2019,11,17,11,54,13.60
2019,11,17,11,55,11.80
2019,11,17,11,56,14.40
2019,11,17,11,57,16.60
2019,11,17,11,58,10.90
2019,11,17,11,59,20.00
2019,11,17,12,00,11.00
2019,11,17,12,01,11.40
2019,11,17,12,02,18.00
2019,11,17,12,03,15.00
2019,11,17,12,04,13.20
2019,11,17,12,05,17.60
2019,11,17,12,06,11.50
2019,11,17,12,07,13.40
2019,11,17,12,08,16.60
2019,11,17,12,09,16.50
2019,11,17,12,10,21.00
2019,11,17,12,11,12.00
2019,11,17,12,12,23.50
2019,11,17,12,13,15.30
2019,11,17,12,14,16.90
2019,11,17,12,15,4.00
2019,11,17,12,16,9.70
2019,11,17,12,17,13.10
2019,11,17,12,18,12.70
2019,11,17,12,19,17.30
2019,11,17,12,20,14.10
2019,11,17,12,21,9.80
2019,11,17,12,22,11.00
2019,11,17,12,23,10.10
2019,11,17,12,24,12.80
2019,11,17,12,25,19.80
2019,11,17,12,26,16.90
2019,11,17,12,27,6.40
2019,11,17,12,28,14.00
2019,11,17,12,29,10.50
2019,11,17,12,30,19.40
2019,11,17,12,31,7.40
2019,11,17,12,32,11.60
2019,11,17,12,33,15.20
2019,11,17,12,34,10.70
2019,11,17,12,35,18.10
2019,11,17,12,36,15.30
2019,11,17,12,37,11.10
2019,11,17,12,38,9.90
2019,11,17,12,39,10.30
2019,11,17,12,40,9.90
2019,11,17,12,41,15.00
2019,11,17,12,42,19.00
2019,11,17,12,43,12.60
2019,11,17,12,44,14.80
2019,11,17,12,45,1.60
2019,11,17,12,46,14.90
2019,11,17,12,47,20.20
2019,11,17,12,48,18.50
2019,11,17,12,49,12.20
2019,11,17,12,50,11.60
2019,11,17,12,51,13.90
2019,11,17,12,52,6.40
2019,11,17,12,53,5.30
2019,11,17,12,54,17.80
2019,11,17,12,55,19.90
2019,11,17,12,56,16.50
2019,11,17,12,57,8.40
2019,11,17,12,58,9.60
2019,11,17,12,59,9.50
2019,11,17,13,00,16.80
2019,11,17,13,01,19.20
2019,11,17,13,02,19.40
2019,11,17,13,03,12.20
2019,11,17,13,04,8.70
2019,11,17,13,05,12.60
2019,11,17,13,06,13.20
2019,11,17,13,07,10.40
2019,11,17,13,08,14.80
2019,11,17,13,09,36.00
2019,11,17,13,10,15.70
2019,11,17,13,11,36.10
2019,11,17,13,12,34.90
2019,11,17,13,13,16.30
2019,11,17,13,14,5.90
2019,11,17,13,15,27.90
2019,11,17,13,16,23.80
2019,11,17,13,17,32.90
2019,11,17,13,18,23.90
2019,11,17,13,19,25.50
2019,11,17,13,20,32.90
2019,11,17,13,21,17.10
2019,11,17,13,22,29.10
2019,11,17,13,23,33.70
2019,11,17,13,24,26.60
2019,11,17,13,25,17.90
2019,11,17,13,26,25.30
2019,11,17,13,27,19.10
2019,11,17,13,28,21.20
2019,11,17,13,29,13.30
2019,11,17,13,30,24.50
2019,11,17,13,31,20.50
2019,11,17,13,32,42.30
2019,11,17,13,33,11.90
2019,11,17,13,34,30.90
2019,11,17,13,35,23.60
2019,11,17,13,36,32.30
2019,11,17,13,37,35.60
2019,11,17,13,38,22.50
2019,11,17,13,39,37.10
2019,11,17,13,40,17.80
2019,11,17,13,41,25.00
2019,11,17,13,42,43.50
2019,11,17,13,43,30.10
2019,11,17,13,44,38.30
2019,11,17,13,45,44.90
2019,11,17,13,46,46.30
2019,11,17,13,47,36.80
2019,11,17,13,48,45.90
2019,11,17,13,49,40.00
2019,11,17,13,50,37.50
2019,11,17,13,51,33.10
2019,11,17,13,52,39.70
2019,11,17,13,53,33.70
2019,11,17,13,54,43.60
2019,11,17,13,55,34.40
2019,11,17,13,56,31.70
2019,11,17,13,57,25.80
2019,11,17,13,58,25.00
2019,11,17,13,59,49.10
2019,11,17,14,00,39.60
2019,11,17,14,01,30.20
2019,11,17,14,02,30.60
2019,11,17,14,03,26.40
2019,11,17,14,04,27.40
2019,11,17,14,05,23.40
2019,11,17,14,06,22.90
2019,11,17,14,07,35.50
2019,11,17,14,08,26.60
2019,11,17,14,09,24.70
2019,11,17,14,10,38.20
2019,11,17,14,11,31.40
2019,11,17,14,12,26.20
2019,11,17,14,13,12.20
2019,11,17,14,14,31.80
2019,11,17,14,15,22.10
2019,11,17,14,16,21.90
2019,11,17,14,17,27.10
2019,11,17,14,18,18.40
2019,11,17,14,19,23.90
2019,11,17,14,20,19.40
2019,11,17,14,21,22.30
2019,11,17,14,22,25.10
2019,11,17,14,23,27.50
2019,11,17,14,24,16.60
2019,11,17,14,25,16.80
2019,11,17,14,26,36.20
2019,11,17,14,27,21.90
2019,11,17,14,28,10.50
2019,11,17,14,29,11.90
2019,11,17,14,30,18.00
2019,11,17,14,31,13.90
2019,11,17,14,32,11.30
2019,11,17,14,33,22.60
2019,11,17,14,34,32.90
2019,11,17,14,35,44.20
2019,11,17,14,36,23.10
2019,11,17,14,37,26.40
2019,11,17,14,38,24.40
2019,11,17,14,39,19.30
2019,11,17,14,40,19.60
2019,11,17,14,41,11.30
2019,11,17,14,42,6.30
2019,11,17,14,43,16.70
2019,11,17,14,44,15.70
2019,11,17,14,45,8.70
2019,11,17,14,46,12.50
2019,11,17,14,47,2.00
2019,11,17,14,48,18.60
2019,11,17,14,49,18.90
2019,11,17,14,50,18.90
2019,11,17,14,51,24.70
2019,11,17,14,52,27.20
2019,11,17,14,53,32.80
2019,11,17,14,54,31.00
2019,11,17,14,55,39.10
2019,11,17,14,56,32.70
2019,11,17,14,57,26.60
2019,11,17,14,58,26.60
2019,11,17,14,59,18.90
2019,11,17,15,00,30.70
2019,11,17,15,01,28.80
2019,11,17,15,02,17.10
2019,11,17,15,03,9.90
2019,11,17,15,04,30.00
2019,11,17,15,05,21.30
2019,11,17,15,06,29.50
2019,11,17,15,07,20.70
2019,11,17,15,08,10.90
2019,11,17,15,09,6.00
2019,11,17,15,10,7.80
2019,11,17,15,11,19.30
2019,11,17,15,12,21.80
2019,11,17,15,13,16.80
2019,11,17,15,14,18.30
2019,11,17,15,15,22.80
2019,11,17,15,16,22.10
2019,11,17,15,17,16.30
2019,11,17,15,18,30.50
2019,11,17,15,19,21.70
2019,11,17,15,20,33.90
2019,11,17,15,21,23.80
2019,11,17,15,22,31.60
2019,11,17,15,23,28.30
2019,11,17,15,24,25.30
2019,11,17,15,25,31.30
2019,11,17,15,26,33.50
2019,11,17,15,27,37.90
2019,11,17,15,28,22.10
2019,11,17,15,29,31.90
2019,11,17,15,30,38.10
2019,11,17,15,31,35.30
2019,11,17,15,32,29.80
2019,11,17,15,33,36.80
2019,11,17,15,34,38.00
2019,11,17,15,35,26.30
2019,11,17,15,36,26.90
2019,11,17,15,37,22.60
2019,11,17,15,38,20.70
2019,11,17,15,39,21.40
2019,11,17,15,40,29.80
2019,11,17,15,41,17.10
2019,11,17,15,42,15.40
2019,11,17,15,43,7.30
2019,11,17,15,44,8.10
2019,11,17,15,45,4.70
2019,11,17,15,46,16.40
2019,11,17,15,47,7.00
2019,11,17,15,48,5.60
2019,11,17,15,49,6.70
2019,11,17,15,50,30.80
2019,11,17,15,51,13.60
2019,11,17,15,52,12.00
2019,11,17,15,53,16.00
2019,11,17,15,54,12.60
2019,11,17,15,55,16.90
2019,11,17,15,56,16.60
2019,11,17,15,57,7.80
2019,11,17,15,58,8.20
2019,11,17,15,59,15.40
2019,11,17,16,00,15.90
2019,11,17,16,01,18.40
2019,11,17,16,02,21.70
2019,11,17,16,03,14.20
2019,11,17,16,04,15.00
2019,11,17,16,05,9.80
2019,11,17,16,06,10.90
2019,11,17,16,07,9.70
2019,11,17,16,08,22.10
2019,11,17,16,09,31.50
2019,11,17,16,10,29.40
2019,11,17,16,11,28.40
2019,11,17,16,12,23.50
2019,11,17,16,13,20.30
2019,11,17,16,14,29.90
2019,11,17,16,15,24.20
2019,11,17,16,16,17.90
2019,11,17,16,17,27.40
2019,11,17,16,18,18.40
2019,11,17,16,19,26.00
2019,11,17,16,20,19.40
2019,11,17,16,21,18.70
2019,11,17,16,22,12.70
2019,11,17,16,23,13.10
2019,11,17,16,24,13.90
2019,11,17,16,25,14.60
2019,11,17,16,26,15.00
2019,11,17,16,27,1.10
2019,11,17,16,28,0.20
2019,11,17,16,29,6.50
2019,11,17,16,30,11.30
2019,11,17,16,31,16.80
2019,11,17,16,32,11.70
2019,11,17,16,33,1.70
2019,11,17,16,34,0.00
2019,11,17,16,35,8.90
2019,11,17,16,36,7.60
2019,11,17,16,37,8.30
2019,11,17,16,38,9.10
2019,11,17,16,39,9.50
2019,11,17,16,40,6.30
2019,11,17,16,41,22.10
2019,11,17,16,42,13.90
2019,11,17,16,43,7.00
2019,11,17,16,44,7.00
2019,11,17,16,45,8.00
2019,11,17,16,46,22.30
2019,11,17,16,47,9.60
2019,11,17,16,48,12.40
2019,11,17,16,49,7.80
2019,11,17,16,50,6.40
2019,11,17,16,51,22.00
2019,11,17,16,52,14.80
2019,11,17,16,53,11.20
2019,11,17,16,54,9.70
2019,11,17,16,55,22.60
2019,11,17,16,56,20.00
2019,11,17,16,57,19.50
2019,11,17,16,58,14.70
2019,11,17,16,59,21.00
2019,11,17,17,00,25.80
2019,11,17,17,01,20.80
2019,11,17,17,02,14.90
2019,11,17,17,03,13.40
2019,11,17,17,04,20.20
2019,11,17,17,05,9.30
2019,11,17,17,06,17.40
2019,11,17,17,07,12.50
2019,11,17,17,08,9.20
2019,11,17,17,09,4.00
2019,11,17,17,10,5.20
2019,11,17,17,11,16.70
2019,11,17,17,12,10.40
2019,11,17,17,13,11.10
2019,11,17,17,14,10.30
2019,11,17,17,15,11.90
2019,11,17,17,16,11.50
2019,11,17,17,17,10.90
2019,11,17,17,18,11.70
2019,11,17,17,19,13.10
2019,11,17,17,20,13.70
2019,11,17,17,21,12.90
2019,11,17,17,22,13.10
2019,11,17,17,23,13.50
2019,11,17,17,24,15.50
2019,11,17,17,25,13.50
2019,11,17,17,26,13.70
2019,11,17,17,27,13.30
2019,11,17,17,28,11.60
2019,11,17,17,29,10.40
2019,11,17,17,30,16.40
2019,11,17,17,31,11.90
2019,11,17,17,32,13.80
2019,11,17,17,33,13.70
2019,11,17,17,34,15.10
2019,11,17,17,35,12.80
2019,11,17,17,36,13.60
2019,11,17,17,37,9.70
2019,11,17,17,38,7.40
2019,11,17,17,39,14.10
2019,11,17,17,40,5.50
2019,11,17,17,41,6.70